IBE61G LEAS-EGCC

Flight info

Callsign IBE61G
Flight time 1h 44m
Altitude 34000
Route MAVOS M30 LOTEE DCT EKDAP DCT NTS UY110 REN UN862 UPALO UP87 ROXOG/N0449F350 L982 VASUX/N0450F340 UN867 AVANT UM184 HEMEL T420 AKUPA UY250 LESTA
Aircraft A320/M-SDE3FGHIRWY/LB1

Departure

Time 2026-04-26 16:14
Airport Asturias Airport (LEAS)

Arrival

Time 2026-04-26 17:59
Airport Manchester Airport (EGCC)
Time Latitude Longitude Altitude Speed Heading
2026-04-26 15:26 43.55908 -6.02857 411 ft 0 kts 198°
2026-04-26 16:03 43.55912 -6.02855 421 ft 2 kts 195°
2026-04-26 16:03 43.55919 -6.02852 422 ft 0 kts 201°
2026-04-26 16:03 43.55926 -6.02850 411 ft 2 kts 199°
2026-04-26 16:04 43.55936 -6.02845 411 ft 2 kts 201°
2026-04-26 16:04 43.55950 -6.02833 412 ft 2 kts 235°
2026-04-26 16:04 43.55956 -6.02812 418 ft 2 kts 272°
2026-04-26 16:04 43.55956 -6.02798 413 ft 0 kts 291°
2026-04-26 16:05 43.55956 -6.02797 414 ft 0 kts 291°
2026-04-26 16:07 43.55957 -6.02802 413 ft 2 kts 289°
2026-04-26 16:07 43.55962 -6.02823 415 ft 6 kts 288°
2026-04-26 16:07 43.55991 -6.02947 419 ft 15 kts 288°
2026-04-26 16:07 43.56022 -6.03078 419 ft 14 kts 288°
2026-04-26 16:08 43.56044 -6.03174 417 ft 0 kts 288°
2026-04-26 16:08 43.56047 -6.03186 410 ft 4 kts 289°
2026-04-26 16:08 43.56068 -6.03223 413 ft 5 kts 327°
2026-04-26 16:09 43.56095 -6.03228 421 ft 3 kts 359°
2026-04-26 16:09 43.56138 -6.03256 410 ft 11 kts 309°
2026-04-26 16:09 43.56180 -6.03416 421 ft 28 kts 288°
2026-04-26 16:09 43.56244 -6.03686 416 ft 30 kts 288°
2026-04-26 16:10 43.56310 -6.03962 421 ft 31 kts 288°
2026-04-26 16:10 43.56376 -6.04242 418 ft 31 kts 288°
2026-04-26 16:10 43.56443 -6.04526 414 ft 31 kts 288°
2026-04-26 16:10 43.56501 -6.04691 412 ft 7 kts 321°
2026-04-26 16:11 43.56536 -6.04722 417 ft 5 kts 330°
2026-04-26 16:11 43.56547 -6.04730 422 ft 0 kts 332°
2026-04-26 16:13 43.56598 -6.04755 422 ft 12 kts 355°
2026-04-26 16:13 43.56647 -6.04684 422 ft 12 kts 97°
2026-04-26 16:13 43.56612 -6.04536 413 ft 32 kts 108°
2026-04-26 16:14 43.56461 -6.03895 417 ft 105 kts 108°
2026-04-26 16:14 43.56178 -6.02718 579 ft 142 kts 104°
2026-04-26 16:14 43.55552 -6.00139 1927 ft 147 kts 107°
2026-04-26 16:15 43.55213 -5.98688 2252 ft 170 kts 108°
2026-04-26 16:15 43.54824 -5.97038 2566 ft 192 kts 108°
2026-04-26 16:15 43.54383 -5.95170 2885 ft 218 kts 108°
2026-04-26 16:16 43.53413 -5.90776 3932 ft 255 kts 96°
2026-04-26 16:16 43.53749 -5.88380 4714 ft 263 kts 60°
2026-04-26 16:16 43.55071 -5.86643 5544 ft 270 kts 26°
2026-04-26 16:16 43.56927 -5.86230 6415 ft 277 kts 351°
2026-04-26 16:17 43.58669 -5.87316 7224 ft 281 kts 318°
2026-04-26 16:17 43.59849 -5.89456 8058 ft 283 kts 297°
2026-04-26 16:17 43.60879 -5.91781 8909 ft 286 kts 313°
2026-04-26 16:17 43.62580 -5.93196 9728 ft 291 kts 345°
2026-04-26 16:18 43.64611 -5.93401 10480 ft 299 kts
2026-04-26 16:18 43.69028 -5.92642 10972 ft 344 kts
2026-04-26 16:19 43.73956 -5.92121 12201 ft 358 kts 360°
2026-04-26 16:19 43.76456 -5.92110 12903 ft 362 kts 358°
2026-04-26 16:19 43.80674 -5.92292 14044 ft 368 kts 356°
2026-04-26 16:20 43.84090 -5.92502 14843 ft 373 kts 356°
2026-04-26 16:20 43.89347 -5.92792 16048 ft 381 kts 356°
2026-04-26 16:20 43.92013 -5.92915 16635 ft 385 kts 356°
2026-04-26 16:21 43.94709 -5.93030 17222 ft 389 kts 356°
2026-04-26 16:21 43.97431 -5.93138 17795 ft 393 kts 356°
2026-04-26 16:21 44.00183 -5.93248 18367 ft 397 kts 356°
2026-04-26 16:21 44.02959 -5.93363 18868 ft 401 kts 356°
2026-04-26 16:22 44.05758 -5.93390 19363 ft 404 kts
2026-04-26 16:22 44.08539 -5.92977 19847 ft 408 kts
2026-04-26 16:22 44.11373 -5.92515 20328 ft 411 kts
2026-04-26 16:22 44.14224 -5.92054 20816 ft 414 kts
2026-04-26 16:23 44.17095 -5.91592 21299 ft 417 kts
2026-04-26 16:23 44.19989 -5.91128 21781 ft 420 kts
2026-04-26 16:23 44.22896 -5.90664 22247 ft 422 kts
2026-04-26 16:23 44.25826 -5.90194 22701 ft 425 kts
2026-04-26 16:24 44.28781 -5.89717 23137 ft 429 kts
2026-04-26 16:24 44.31761 -5.89234 23546 ft 433 kts
2026-04-26 16:24 44.34763 -5.88745 23941 ft 436 kts
2026-04-26 16:24 44.37786 -5.88253 24309 ft 438 kts
2026-04-26 16:25 44.40826 -5.87757 24680 ft 441 kts
2026-04-26 16:25 44.43877 -5.87260 25044 ft 443 kts
2026-04-26 16:25 44.46950 -5.86762 25412 ft 445 kts
2026-04-26 16:25 44.50034 -5.86259 25745 ft 448 kts
2026-04-26 16:26 44.53142 -5.85750 26089 ft 450 kts
2026-04-26 16:26 44.55206 -5.85413 26303 ft 452 kts
2026-04-26 16:26 44.59400 -5.84723 26766 ft 455 kts
2026-04-26 16:26 44.62509 -5.83804 27097 ft 460 kts 15°
2026-04-26 16:27 44.65472 -5.82177 27423 ft 464 kts 25°
2026-04-26 16:27 44.68288 -5.79809 27753 ft 468 kts 35°
2026-04-26 16:27 44.70804 -5.76788 28073 ft 471 kts 45°
2026-04-26 16:27 44.73123 -5.73515 28380 ft 474 kts 45°
2026-04-26 16:28 44.75421 -5.70276 28690 ft 475 kts 45°
2026-04-26 16:28 44.77761 -5.66977 29021 ft 477 kts 45°
2026-04-26 16:28 44.80110 -5.63662 29325 ft 478 kts 45°
2026-04-26 16:28 44.82466 -5.60338 29608 ft 480 kts 45°
2026-04-26 16:29 44.84834 -5.56995 29887 ft 482 kts 45°
2026-04-26 16:29 44.87212 -5.53638 30162 ft 485 kts 45°
2026-04-26 16:29 44.89600 -5.50257 30378 ft 488 kts 45°
2026-04-26 16:29 44.91989 -5.46864 30702 ft 487 kts 45°
2026-04-26 16:30 44.94372 -5.43471 31035 ft 486 kts 45°
2026-04-26 16:30 44.96753 -5.40078 31366 ft 486 kts 45°
2026-04-26 16:30 44.99129 -5.36691 31699 ft 485 kts 45°
2026-04-26 16:30 45.01509 -5.33300 32043 ft 484 kts 45°
2026-04-26 16:31 45.03873 -5.29928 32436 ft 482 kts 45°
2026-04-26 16:31 45.06226 -5.26563 32800 ft 480 kts 45°
2026-04-26 16:31 45.08571 -5.23204 33130 ft 480 kts 45°
2026-04-26 16:31 45.10917 -5.19841 33451 ft 480 kts 45°
2026-04-26 16:32 45.13254 -5.16480 33763 ft 479 kts 45°
2026-04-26 16:32 45.14802 -5.14253 33974 ft 479 kts 45°
2026-04-26 16:32 45.17903 -5.09798 34192 ft 478 kts 45°
2026-04-26 16:32 45.20236 -5.06443 34193 ft 478 kts 45°
2026-04-26 16:33 45.24892 -4.99718 34190 ft 476 kts 45°
2026-04-26 16:33 45.29520 -4.93008 34186 ft 475 kts 45°
2026-04-26 16:34 45.34036 -4.86158 34190 ft 475 kts 49°
2026-04-26 16:34 45.38289 -4.78945 34196 ft 476 kts 51°
2026-04-26 16:35 45.42466 -4.71649 34185 ft 475 kts 50°
2026-04-26 16:35 45.46685 -4.64410 34179 ft 475 kts 50°
2026-04-26 16:36 45.50955 -4.57211 34197 ft 475 kts 50°
2026-04-26 16:36 45.55217 -4.49995 34186 ft 475 kts 50°
2026-04-26 16:37 45.59454 -4.42765 34202 ft 475 kts 50°
2026-04-26 16:37 45.62966 -4.36750 34189 ft 475 kts 50°
2026-04-26 16:38 45.67887 -4.28300 34188 ft 475 kts 50°
2026-04-26 16:38 45.72111 -4.21032 34193 ft 475 kts 50°
2026-04-26 16:39 45.76334 -4.13756 34192 ft 475 kts 50°
2026-04-26 16:39 45.80557 -4.06465 34191 ft 475 kts 50°
2026-04-26 16:40 45.84769 -3.99161 34191 ft 475 kts 50°
2026-04-26 16:40 45.88985 -3.91836 34189 ft 475 kts 50°
2026-04-26 16:41 45.93185 -3.84510 34198 ft 475 kts 50°
2026-04-26 16:41 45.97386 -3.77175 34193 ft 475 kts 50°
2026-04-26 16:42 46.01552 -3.69867 34191 ft 475 kts 50°
2026-04-26 16:42 46.05743 -3.62517 34188 ft 475 kts 50°
2026-04-26 16:43 46.09926 -3.55162 34176 ft 474 kts 50°
2026-04-26 16:43 46.14105 -3.47786 34188 ft 475 kts 51°
2026-04-26 16:44 46.18273 -3.40401 34189 ft 475 kts 51°
2026-04-26 16:44 46.21735 -3.34246 34188 ft 474 kts 51°
2026-04-26 16:45 46.25898 -3.26835 34189 ft 475 kts 51°
2026-04-26 16:45 46.30059 -3.19403 34184 ft 475 kts 51°
2026-04-26 16:46 46.34210 -3.11975 34191 ft 475 kts 51°
2026-04-26 16:46 46.38362 -3.04542 34187 ft 475 kts 51°
2026-04-26 16:47 46.42509 -2.97082 34188 ft 475 kts 51°
2026-04-26 16:47 46.46624 -2.89647 34188 ft 475 kts 51°
2026-04-26 16:48 46.50756 -2.82169 34185 ft 475 kts 51°
2026-04-26 16:48 46.54897 -2.74678 34191 ft 475 kts 51°
2026-04-26 16:49 46.59030 -2.67185 34191 ft 475 kts 51°
2026-04-26 16:49 46.63159 -2.59647 34192 ft 475 kts 51°
2026-04-26 16:50 46.67276 -2.52121 34190 ft 475 kts 51°
2026-04-26 16:50 46.71392 -2.44580 34190 ft 475 kts 51°
2026-04-26 16:51 46.75473 -2.37085 34174 ft 475 kts 51°
2026-04-26 16:51 46.79605 -2.29471 34175 ft 475 kts 51°
2026-04-26 16:52 46.83005 -2.23181 34175 ft 475 kts 51°
2026-04-26 16:52 46.87756 -2.14369 34175 ft 475 kts 51°
2026-04-26 16:53 46.91841 -2.06781 34169 ft 474 kts 51°
2026-04-26 16:53 46.95913 -1.99193 34188 ft 473 kts 51°
2026-04-26 16:54 46.99980 -1.91611 34173 ft 473 kts 51°
2026-04-26 16:54 47.04036 -1.84025 34164 ft 473 kts 51°
2026-04-26 16:55 47.08085 -1.76397 34155 ft 477 kts 51°
2026-04-26 16:55 47.12450 -1.69032 34203 ft 477 kts 38°
2026-04-26 16:56 47.18123 -1.64135 34203 ft 466 kts 17°
2026-04-26 16:56 47.21191 -1.62923 34196 ft 460 kts
2026-04-26 16:57 47.27509 -1.62835 34188 ft 451 kts 351°
2026-04-26 16:57 47.36880 -1.64118 34175 ft 450 kts 351°
2026-04-26 16:58 47.42106 -1.64849 34179 ft 450 kts 351°
2026-04-26 16:59 47.52461 -1.66329 34168 ft 449 kts 351°
2026-04-26 17:00 47.64926 -1.68113 34164 ft 450 kts 351°
2026-04-26 17:00 47.74276 -1.69461 34159 ft 450 kts 351°
2026-04-26 17:01 47.80512 -1.70356 34174 ft 450 kts 352°
2026-04-26 17:01 47.86760 -1.71248 34184 ft 450 kts 352°
2026-04-26 17:02 47.92997 -1.72142 34187 ft 450 kts 351°
2026-04-26 17:02 47.99193 -1.73044 34190 ft 450 kts 351°
2026-04-26 17:03 48.05426 -1.73950 34188 ft 450 kts 351°
2026-04-26 17:03 48.11707 -1.74235 34186 ft 452 kts 356°
2026-04-26 17:04 48.18006 -1.74310 34186 ft 452 kts 356°
2026-04-26 17:04 48.24306 -1.74385 34195 ft 452 kts 356°
2026-04-26 17:05 48.30603 -1.74454 34189 ft 453 kts 356°
2026-04-26 17:05 48.36905 -1.74530 34185 ft 453 kts 356°
2026-04-26 17:06 48.43210 -1.74609 34199 ft 453 kts 356°
2026-04-26 17:06 48.49513 -1.74687 34196 ft 453 kts 356°
2026-04-26 17:07 48.55778 -1.74759 34193 ft 453 kts 356°
2026-04-26 17:07 48.62087 -1.74836 34191 ft 453 kts 356°
2026-04-26 17:08 48.68400 -1.74911 34198 ft 453 kts 356°
2026-04-26 17:08 48.74715 -1.74985 34196 ft 453 kts 356°
2026-04-26 17:09 48.79958 -1.75049 34196 ft 453 kts 356°
2026-04-26 17:09 48.87305 -1.75153 34198 ft 453 kts 356°
2026-04-26 17:10 48.93618 -1.75195 34208 ft 453 kts 358°
2026-04-26 17:10 48.99964 -1.74957 34223 ft 453 kts 359°
2026-04-26 17:11 49.06253 -1.74630 34222 ft 452 kts 359°
2026-04-26 17:11 49.12490 -1.74357 34234 ft 451 kts 358°
2026-04-26 17:12 49.21906 -1.74015 34226 ft 451 kts 358°
2026-04-26 17:13 49.31312 -1.73668 34228 ft 451 kts 358°
2026-04-26 17:14 49.40738 -1.73290 34227 ft 451 kts 358°
2026-04-26 17:14 49.50156 -1.72927 34233 ft 451 kts 358°
2026-04-26 17:15 49.59583 -1.72576 34241 ft 452 kts 358°
2026-04-26 17:16 49.65877 -1.72160 34240 ft 453 kts 360°
2026-04-26 17:16 49.72169 -1.71564 34239 ft 453 kts
2026-04-26 17:17 49.78434 -1.70978 34245 ft 453 kts 360°
2026-04-26 17:17 49.84739 -1.70435 34240 ft 454 kts 360°
2026-04-26 17:18 49.91045 -1.69910 34246 ft 454 kts 360°
2026-04-26 17:18 49.97352 -1.69380 34258 ft 454 kts
2026-04-26 17:19 50.06627 -1.65962 34253 ft 460 kts 14°
2026-04-26 17:19 50.12742 -1.62992 34253 ft 460 kts 14°
2026-04-26 17:20 50.16832 -1.61008 34255 ft 460 kts 14°
2026-04-26 17:20 50.24935 -1.56828 34255 ft 463 kts 22°
2026-04-26 17:21 50.30372 -1.51396 34252 ft 468 kts 38°
2026-04-26 17:21 50.35373 -1.44884 34257 ft 468 kts 38°
2026-04-26 17:22 50.40388 -1.38373 34261 ft 468 kts 37°
2026-04-26 17:22 50.45394 -1.31848 34288 ft 467 kts 37°
2026-04-26 17:23 50.50420 -1.25389 34284 ft 465 kts 32°
2026-04-26 17:23 50.55823 -1.19985 34282 ft 463 kts 29°
2026-04-26 17:24 50.61268 -1.14582 34275 ft 463 kts 30°
2026-04-26 17:24 50.65791 -1.10059 34279 ft 463 kts 30°
2026-04-26 17:25 50.71230 -1.04618 34291 ft 462 kts 30°
2026-04-26 17:25 50.76670 -0.99192 34284 ft 462 kts 30°
2026-04-26 17:26 50.82195 -0.94006 34282 ft 459 kts 21°
2026-04-26 17:26 50.88179 -0.90651 34300 ft 455 kts 14°
2026-04-26 17:27 50.94202 -0.87542 34297 ft 455 kts 14°
2026-04-26 17:27 51.00232 -0.84416 34284 ft 455 kts 14°
2026-04-26 17:28 51.06254 -0.81286 34279 ft 455 kts 15°
2026-04-26 17:28 51.12274 -0.78148 34286 ft 455 kts 15°
2026-04-26 17:29 51.17275 -0.75534 34278 ft 455 kts 15°
2026-04-26 17:29 51.24306 -0.71846 34273 ft 455 kts 15°
2026-04-26 17:30 51.30321 -0.68672 34271 ft 455 kts 15°
2026-04-26 17:30 51.36338 -0.65515 34287 ft 455 kts 15°
2026-04-26 17:31 51.42312 -0.62367 34288 ft 455 kts 15°
2026-04-26 17:31 51.48368 -0.59152 34283 ft 455 kts 15°
2026-04-26 17:32 51.54378 -0.55960 34275 ft 455 kts 15°
2026-04-26 17:32 51.60386 -0.52762 34283 ft 455 kts 15°
2026-04-26 17:33 51.66396 -0.49549 34282 ft 455 kts 15°
2026-04-26 17:34 51.75462 -0.45072 34302 ft 450 kts
2026-04-26 17:34 51.81630 -0.45203 34312 ft 440 kts 345°
2026-04-26 17:35 51.87311 -0.48484 34302 ft 431 kts 327°
2026-04-26 17:35 51.92417 -0.53438 34296 ft 431 kts 325°
2026-04-26 17:36 51.97549 -0.58468 34284 ft 431 kts 326°
2026-04-26 17:36 52.02685 -0.63500 34283 ft 431 kts 326°
2026-04-26 17:37 52.07819 -0.68544 34279 ft 431 kts 325°
2026-04-26 17:37 52.12965 -0.73597 34279 ft 431 kts 326°
2026-04-26 17:38 52.20669 -0.81194 34258 ft 432 kts 325°
2026-04-26 17:38 52.25819 -0.86301 34257 ft 433 kts 325°
2026-04-26 17:39 52.30970 -0.91417 34272 ft 433 kts 325°
2026-04-26 17:39 52.33541 -0.93974 33907 ft 430 kts 325°
2026-04-26 17:39 52.36098 -0.96524 32161 ft 436 kts 325°
2026-04-26 17:40 52.38727 -0.99159 30293 ft 449 kts 325°
2026-04-26 17:40 52.40489 -1.00925 29258 ft 448 kts 325°
2026-04-26 17:40 52.44019 -1.04457 27427 ft 441 kts 325°
2026-04-26 17:40 52.46726 -1.06781 26187 ft 437 kts 335°
2026-04-26 17:41 52.49584 -1.08228 25057 ft 435 kts 345°
2026-04-26 17:41 52.52587 -1.08768 24127 ft 437 kts 357°
2026-04-26 17:41 52.55623 -1.08565 23505 ft 434 kts 360°
2026-04-26 17:41 52.58617 -1.08333 22915 ft 427 kts 360°
2026-04-26 17:42 52.61563 -1.08118 22387 ft 421 kts 360°
2026-04-26 17:42 52.64469 -1.07910 21868 ft 415 kts 360°
2026-04-26 17:42 52.67336 -1.07703 21377 ft 409 kts 360°
2026-04-26 17:42 52.70139 -1.07852 20882 ft 400 kts 349°
2026-04-26 17:43 52.72810 -1.08937 20390 ft 392 kts 337°
2026-04-26 17:43 52.75236 -1.10870 19922 ft 384 kts 325°
2026-04-26 17:43 52.77336 -1.13523 19448 ft 379 kts 314°
2026-04-26 17:43 52.79116 -1.16720 18962 ft 377 kts 308°
2026-04-26 17:44 52.80836 -1.19978 18497 ft 376 kts 308°
2026-04-26 17:44 52.82550 -1.23224 17988 ft 374 kts 309°
2026-04-26 17:44 52.84253 -1.26454 17514 ft 371 kts 309°
2026-04-26 17:44 52.85945 -1.29670 17057 ft 369 kts 309°
2026-04-26 17:45 52.87622 -1.32862 16598 ft 366 kts 309°
2026-04-26 17:45 52.89285 -1.36032 16143 ft 363 kts 309°
2026-04-26 17:45 52.90935 -1.39182 15690 ft 361 kts 309°
2026-04-26 17:45 52.92576 -1.42315 15244 ft 358 kts 309°
2026-04-26 17:46 52.94201 -1.45421 14795 ft 355 kts 309°
2026-04-26 17:46 52.95812 -1.48507 14350 ft 353 kts 309°
2026-04-26 17:46 52.97409 -1.51575 13891 ft 350 kts 309°
2026-04-26 17:46 52.98993 -1.54619 13438 ft 347 kts 309°
2026-04-26 17:47 53.00564 -1.57645 13007 ft 344 kts 309°
2026-04-26 17:47 53.01618 -1.59681 12716 ft 342 kts 309°
2026-04-26 17:47 53.03661 -1.63629 12152 ft 339 kts 309°
2026-04-26 17:47 53.05184 -1.66572 11886 ft 330 kts 309°
2026-04-26 17:48 53.06655 -1.69415 11751 ft 318 kts 309°
2026-04-26 17:48 53.08076 -1.72158 11633 ft 307 kts 309°
2026-04-26 17:48 53.09446 -1.74803 11483 ft 297 kts 309°
2026-04-26 17:48 53.10780 -1.77382 11325 ft 291 kts 309°
2026-04-26 17:49 53.12101 -1.79948 11043 ft 292 kts 309°
2026-04-26 17:49 53.13420 -1.82516 10656 ft 292 kts 309°
2026-04-26 17:49 53.14740 -1.85087 10300 ft 291 kts 309°
2026-04-26 17:49 53.16051 -1.87643 9901 ft 290 kts 309°
2026-04-26 17:50 53.17354 -1.90183 9558 ft 287 kts 309°
2026-04-26 17:50 53.18648 -1.92708 9178 ft 285 kts 309°
2026-04-26 17:50 53.19936 -1.95221 8760 ft 284 kts 309°
2026-04-26 17:50 53.21204 -1.97694 8555 ft 275 kts 309°
2026-04-26 17:51 53.22448 -2.00047 8419 ft 265 kts 315°
2026-04-26 17:51 53.23944 -2.01772 8239 ft 259 kts 334°
2026-04-26 17:51 53.25682 -2.02591 7899 ft 265 kts 353°
2026-04-26 17:51 53.27521 -2.02489 7519 ft 266 kts
2026-04-26 17:52 53.29362 -2.02249 7240 ft 262 kts
2026-04-26 17:52 53.31175 -2.02020 6902 ft 260 kts
2026-04-26 17:52 53.32978 -2.01798 6535 ft 259 kts
2026-04-26 17:52 53.34772 -2.01576 6155 ft 258 kts
2026-04-26 17:53 53.36550 -2.01356 5775 ft 256 kts
2026-04-26 17:53 53.38327 -2.01136 5411 ft 252 kts
2026-04-26 17:53 53.40052 -2.00922 4784 ft 252 kts
2026-04-26 17:54 53.43377 -2.00645 4275 ft 225 kts 348°
2026-04-26 17:54 53.44739 -2.01744 3854 ft 216 kts 311°
2026-04-26 17:54 53.45460 -2.03907 3419 ft 211 kts 278°
2026-04-26 17:54 53.45377 -2.06250 3180 ft 199 kts 249°
2026-04-26 17:55 53.44670 -2.08170 2955 ft 191 kts 231°
2026-04-26 17:55 53.43874 -2.09824 2721 ft 173 kts 230°
2026-04-26 17:55 53.43144 -2.11347 2512 ft 163 kts 230°
2026-04-26 17:55 53.42432 -2.12829 2264 ft 158 kts 230°
2026-04-26 17:56 53.41757 -2.14235 2065 ft 149 kts 230°
2026-04-26 17:56 53.40543 -2.16763 1690 ft 133 kts 230°
2026-04-26 17:57 53.39392 -2.19155 1327 ft 132 kts 230°
2026-04-26 17:57 53.38817 -2.20351 1152 ft 133 kts 230°
2026-04-26 17:57 53.38235 -2.21560 964 ft 133 kts 229°
2026-04-26 17:57 53.37647 -2.22799 761 ft 132 kts 229°
2026-04-26 17:58 53.35895 -2.26421 288 ft 133 kts 230°
2026-04-26 17:59 53.35249 -2.27924 237 ft 14 kts 300°
2026-04-26 17:59 53.35240 -2.28056 231 ft 13 kts 262°
2026-04-26 17:59 53.35236 -2.28099 233 ft 0 kts 261°
2026-04-26 17:59 53.35236 -2.28101 233 ft 2 kts 261°
2026-04-26 18:00 53.35233 -2.28137 231 ft 5 kts 263°
2026-04-26 18:00 53.35237 -2.28166 231 ft 0 kts 307°
2026-04-26 18:01 53.35261 -2.28185 232 ft 4 kts 349°
2026-04-26 18:01 53.35268 -2.28186 232 ft 0 kts 355°
2026-04-26 18:01 53.35293 -2.28174 233 ft 11 kts 25°
2026-04-26 18:02 53.35339 -2.28109 237 ft 7 kts 44°
2026-04-26 18:02 53.35346 -2.28098 239 ft 0 kts 44°
2026-04-26 18:03 53.35351 -2.28089 239 ft 5 kts 44°
2026-04-26 18:03 53.35386 -2.28033 237 ft 8 kts 43°
2026-04-26 18:03 53.35440 -2.27949 238 ft 18 kts 38°
2026-04-26 18:03 53.35567 -2.27906 237 ft 19 kts
2026-04-26 18:04 53.35684 -2.27884 244 ft 15 kts
2026-04-26 18:04 53.35775 -2.27870 249 ft 12 kts
2026-04-26 18:04 53.35850 -2.27857 253 ft 14 kts
2026-04-26 18:05 53.36108 -2.28071 255 ft 27 kts 317°
2026-04-26 18:05 53.36254 -2.28319 255 ft 37 kts 314°
2026-04-26 18:05 53.36354 -2.28472 255 ft 13 kts 331°
2026-04-26 18:05 53.36436 -2.28516 255 ft 16 kts 322°
2026-04-26 18:06 53.36546 -2.28701 255 ft 25 kts 313°
2026-04-26 18:06 53.36628 -2.28887 255 ft 18 kts 316°
2026-04-26 18:06 53.36722 -2.29046 255 ft 21 kts 314°
2026-04-26 18:06 53.36798 -2.29055 255 ft 8 kts 19°
2026-04-26 18:07 53.36800 -2.29053 255 ft 0 kts 19°
2026-04-26 18:07 53.36833 -2.28995 255 ft 10 kts 44°
2026-04-26 18:07 53.36869 -2.28936 255 ft 11 kts 44°
2026-04-26 18:08 53.36868 -2.28840 255 ft 1 kts 133°
2026-04-26 18:08 53.36865 -2.28836 255 ft 0 kts 135°